Weather reports worldwide

Advertisment
Mierkenis, Sweden (2121): temperature & dewpoint: 08.12.2019 03:00:00 - 14.12.2019 03:00:00 (CET)Mierkenis, Sweden (2121): wind speed & gusts: 08.12.2019 03:00:00 - 14.12.2019 03:00:00 (CET)Mierkenis, Sweden (2121): wind direction: 08.12.2019 03:00:00 - 14.12.2019 03:00:00 (CET)Mierkenis, Sweden (2121): reduced air pressure: 08.12.2019 03:00:00 - 14.12.2019 03:00:00 (CET)Mierkenis, Sweden (2121): visibility: 08.12.2019 03:00:00 - 14.12.2019 03:00:00 (CET)Mierkenis, Sweden (2121): precipitation: 08.12.2019 03:00:00 - 14.12.2019 03:00:00 (CET)
Date & Time tt [°C] td [°C] ff [km/h] ff [kn] fx [km/h] fx [kn] dd ppp [hPa] vv [km] rr [mm]
14.12.2019 03:00:00 -8,1 -9,0 3 2 14 8 S 997,0 50 0,0
14.12.2019 02:00:00 -6,2 -8,5 11 6 19 10 ESE 996,5 50 0,0
14.12.2019 01:00:00 -9,4 -10,5 13 7 19 10 SE 996,7 50 0,0
14.12.2019 00:00:00 -11,6 -12,6 4 2 11 6 SW 996,6 50 0,0
13.12.2019 23:00:00 -9,5 -10,4 3 2 12 6 WSW 996,0 50 0,0
13.12.2019 22:00:00 -6,3 -8,0 9 5 17 9 SE 994,9 50 0,0
13.12.2019 21:00:00 -4,2 -5,7 11 6 17 9 SE 994,0 50 0,0
13.12.2019 20:00:00 -3,7 -5,1 9 5 16 9 SE 993,6 50 0,0
13.12.2019 19:00:00 -3,3 -5,0 10 6 17 9 ESE 993,2 50 0,0
13.12.2019 18:00:00 -4,7 -5,7 13 7 15 8 SE 992,9 50 0,0
13.12.2019 17:00:00 -6,8 -7,3 9 5 13 7 SE 992,9 50 0,0
13.12.2019 16:00:00 -5,8 -7,2 3 2 8 4 SSE 992,6 50 0,0
13.12.2019 15:00:00 -5,8 -6,5 4 2 11 6 SE 992,1 50 0,0
13.12.2019 14:00:00 -4,1 -5,2 9 5 20 11 SE 991,3 50 0,0
13.12.2019 13:00:00 -2,5 -4,5 13 7 24 13 SE 990,7 50 0,0
13.12.2019 12:00:00 -2,1 -4,3 13 7 23 13 SE 990,3 50 0,0
13.12.2019 11:00:00 -2,0 -4,2 10 6 28 15 ESE 990,1 41 0,0
13.12.2019 10:00:00 -2,0 -4,0 10 6 24 13 SE 989,7 49 0,0
13.12.2019 09:00:00 -1,8 -4,1 13 7 23 13 SE 989,2 50 0,0
13.12.2019 08:00:00 -1,5 -3,8 13 7 22 12 ESE 988,1 50 0,0
13.12.2019 07:00:00 -1,8 -4,0 13 7 25 13 SSE 987,8 50 0,0
13.12.2019 06:00:00 -1,6 -3,9 15 8 26 14 SE 987,6 50 0,0
13.12.2019 05:00:00 -1,5 -3,2 16 9 22 12 SE 987,6 9 0,0
13.12.2019 04:00:00 -1,7 -3,4 9 5 26 14 E 987,5 18 0,0
13.12.2019 03:00:00 -1,9 -3,9 17 9 26 14 SE 987,2 50 0,0
13.12.2019 02:00:00 -1,8 -4,0 13 7 27 14 SE 987,4 50 0,0
13.12.2019 01:00:00 -1,7 -4,2 15 8 23 13 E 987,7 50 0,0
13.12.2019 00:00:00 -1,8 -4,6 13 7 21 11 SE 987,7 50 0,0
12.12.2019 23:00:00 -2,0 -5,2 9 5 16 9 ENE 987,8 50 0,0
12.12.2019 22:00:00 -1,7 -5,2 11 6 35 19 ESE 988,0 50 0,0
12.12.2019 21:00:00 -1,4 -5,6 20 11 35 19 SE 987,5 50 0,0
12.12.2019 20:00:00 -1,5 -5,0 16 9 34 18 SE 987,9 50 0,0
12.12.2019 19:00:00 -1,8 -5,0 12 7 33 18 SE 987,9 50 0,0
12.12.2019 18:00:00 -1,8 -4,8 21 11 43 23 SSE 987,9 50 0,0
12.12.2019 17:00:00 -2,5 -5,0 16 8 41 22 SE 987,9 50 0,0
12.12.2019 16:00:00 -1,6 -4,8 26 14 38 21 SE 988,4 50 0,0
12.12.2019 15:00:00 -2,8 -5,6 13 7 40 22 SE 988,7 50 0,0
12.12.2019 14:00:00 -1,9 -5,6 23 12 36 19 SE 988,7 50 0,0
12.12.2019 13:00:00 -2,2 -5,5 22 12 32 18 ESE 988,9 50 0,0
12.12.2019 12:00:00 -2,0 -5,2 23 12 35 19 E 989,2 50 0,0
12.12.2019 11:00:00 -2,1 -5,4 21 12 33 18 ESE 989,3 50 0,0
12.12.2019 10:00:00 -2,8 -5,3 16 9 29 16 SE 989,7 50 0,0
12.12.2019 09:00:00 -3,7 -5,9 13 7 27 15 SE 989,6 50 0,0
12.12.2019 08:00:00 -3,4 -5,6 11 6 34 18 E 989,7 50 0,0
12.12.2019 07:00:00 -3,4 -5,7 16 9 29 16 E 989,9 50 0,0
12.12.2019 06:00:00 -3,7 -5,7 19 10 33 18 ESE 989,5 50 0,0
12.12.2019 05:00:00 -3,3 -5,5 13 7 27 14 ESE 990,0 50 0,0
12.12.2019 04:00:00 -3,9 -5,6 14 7 23 12 ESE 989,6 50 0,0
12.12.2019 03:00:00 -4,9 -6,1 12 6 41 22 ESE 989,9 50 0,0
12.12.2019 02:00:00 -4,4 -5,4 24 13 41 22 ESE 989,7 45 0,0
12.12.2019 01:00:00 -4,3 -6,1 21 11 44 24 ESE 990,5 50 0,0
12.12.2019 00:00:00 -3,9 -6,4 15 8 30 16 SE 989,8 50 0,0
11.12.2019 23:00:00 -8,7 -10,0 9 5 14 7 NW 990,7 50 0,0
11.12.2019 22:00:00 -4,7 -7,5 5 3 19 10 WNW 990,2 50 0,0
11.12.2019 21:00:00 0,1 -4,7 7 4 37 20 NE 988,8 50 0,0
11.12.2019 20:00:00 0,7 -4,1 15 8 29 15 SSW 987,9 31 0,0
11.12.2019 19:00:00 0,2 -3,7 6 3 31 17 SW 987,3 50 0,0
11.12.2019 18:00:00 -0,2 -1,9 6 4 30 16 W 986,6 1,3 0,0
11.12.2019 17:00:00 0,3 -3,1 12 7 24 13 WSW 985,8 12 0,0
11.12.2019 16:00:00 -0,3 -1,9 8 4 - - W 985,2 36 0,0
11.12.2019 15:00:00 -0,8 -1,8 6 4 20 11 WSW 984,4 28 0,0
11.12.2019 14:00:00 -3,2 -3,9 10 5 21 11 S 984,5 4,4 0,0
11.12.2019 13:00:00 -3,5 -4,0 15 8 23 13 SE 983,9 2,4 0,0
11.12.2019 12:00:00 -3,9 -4,6 14 8 22 12 SE 983,3 2,7 1,8
11.12.2019 11:00:00 -4,3 -5,0 13 7 20 11 SE 983,4 4,0 0,0
11.12.2019 10:00:00 -4,2 -5,3 13 7 28 15 SE 983,4 10 0,0
11.12.2019 09:00:00 -4,5 -5,5 17 9 34 18 ESE 983,3 3,3 0,5
11.12.2019 08:00:00 -4,6 -5,8 24 13 39 21 SE 983,5 2,6 1,0
11.12.2019 07:00:00 -5,6 -6,4 22 12 49 26 SE 983,9 1,0 0,8
11.12.2019 06:00:00 -6,2 -7,0 35 19 53 29 SSE 984,5 0,7 0,0
11.12.2019 05:00:00 -6,7 -8,2 28 15 51 27 SE 986,5 2,4 0,0
11.12.2019 04:00:00 -7,7 -8,9 29 15 49 26 SE 988,0 2,1 0,0
11.12.2019 03:00:00 -8,1 -9,4 31 17 45 24 SE 989,7 1,7 0,0
11.12.2019 02:00:00 -8,7 -10,2 22 12 48 26 SE 992,2 2,4 0,0
11.12.2019 01:00:00 -9,3 -10,8 33 18 49 26 SE 993,2 1,5 0,0
11.12.2019 00:00:00 -9,5 -11,1 27 15 46 25 SE 995,4 2,3 0,0
10.12.2019 23:00:00 -10,7 -12,6 24 13 41 22 ESE 997,8 16 0,0
10.12.2019 22:00:00 -11,0 -12,6 25 13 36 20 ESE 999,6 4,1 0,0
10.12.2019 21:00:00 -11,8 -13,5 27 14 41 22 ESE 1001,0 3,3 0,0
10.12.2019 20:00:00 -14,2 -15,7 16 8 32 17 SSE 1003,5 50 0,0
10.12.2019 19:00:00 -18,3 -20,1 9 5 16 8 SE 1005,5 3,8 0,0
10.12.2019 18:00:00 -21,1 -23,1 4 2 9 5 SSE 1006,7 27 0,0
10.12.2019 17:00:00 -22,6 -25,1 0 0 12 6 N 1008,1 50 0,0
10.12.2019 16:00:00 -22,5 -24,7 6 3 16 9 NW 1008,9 50 0,0
10.12.2019 15:00:00 -22,3 -24,7 8 4 15 8 NW 1009,4 21 0,0
10.12.2019 14:00:00 -21,3 -23,7 8 4 11 6 NNW 1009,0 44 0,0
10.12.2019 13:00:00 -20,4 -22,7 7 4 12 7 NW 1009,0 38 0,0
10.12.2019 12:00:00 -18,5 -20,4 8 4 11 6 NW 1008,4 50 0,0
10.12.2019 11:00:00 -17,9 -20,1 7 4 10 6 NW 1008,2 24 0,0
10.12.2019 10:00:00 -15,5 -16,9 0 0 6 3 N 1007,6 50 0,0
10.12.2019 09:00:00 -13,9 -15,0 3 2 14 8 WNW 1006,4 36 0,0
10.12.2019 08:00:00 -12,4 -13,8 7 4 12 6 WNW 1005,2 43 0,0
10.12.2019 07:00:00 -10,2 -11,9 5 3 29 15 NW 1004,2 35 0,0
10.12.2019 06:00:00 -7,2 -9,6 10 5 22 12 NNW 1002,9 20 0,0
10.12.2019 05:00:00 -8,0 -10,4 8 5 19 10 NW 1002,2 8 0,0
10.12.2019 04:00:00 -12,4 -15,0 9 5 18 10 W 1001,9 50 0,0
10.12.2019 03:00:00 -8,4 -11,5 11 6 39 21 NNW 1000,3 50 0,0
10.12.2019 02:00:00 -7,9 -11,1 22 12 34 18 NNW 999,0 40 0,0
10.12.2019 01:00:00 -8,3 -12,1 18 10 37 20 NNW 997,8 50 0,0
10.12.2019 00:00:00 -11,2 -14,1 11 6 27 15 NNW 997,1 50 0,0
09.12.2019 23:00:00 -8,7 -12,0 20 11 31 17 NNW 995,2 50 0,0
09.12.2019 22:00:00 -12,0 -13,6 11 6 16 9 NNW 994,0 48 0,0
09.12.2019 21:00:00 -10,9 -12,4 9 5 12 6 NW 992,0 12 0,0
09.12.2019 20:00:00 -11,8 -13,2 4 2 7 4 NNW 990,1 1,6 0,0
09.12.2019 19:00:00 -13,4 -15,0 4 2 13 7 ESE 989,0 11 0,0
09.12.2019 18:00:00 -15,3 -16,7 4 2 10 6 SSE 988,4 50 0,0
09.12.2019 17:00:00 -14,3 -15,7 8 5 13 7 NNW 987,4 28 0,0
09.12.2019 16:00:00 -12,3 -14,7 4 2 - - WNW 986,8 14 0,0
09.12.2019 15:00:00 -8,5 -12,1 15 8 24 13 N 985,8 35 0,0
09.12.2019 14:00:00 -10,8 -14,0 8 4 21 11 NNW 984,8 50 0,0
09.12.2019 13:00:00 -9,5 -13,6 11 6 29 16 NW 984,1 50 0,0
09.12.2019 12:00:00 -8,8 -12,4 13 7 26 14 NW 983,1 50 0,0
09.12.2019 11:00:00 -8,8 -12,9 19 11 37 20 NNW 982,4 50 0,0
09.12.2019 10:00:00 -8,5 -11,8 23 12 39 21 NNW 981,0 46 0,0
09.12.2019 09:00:00 -8,8 -11,6 12 6 25 13 NW 980,0 50 0,0
09.12.2019 08:00:00 -7,9 -10,7 14 8 24 13 NNW 979,0 50 0,0
09.12.2019 07:00:00 -8,1 -10,5 11 6 17 9 NW 978,1 13 0,0
09.12.2019 06:00:00 -10,1 -11,7 5 3 11 6 WNW 977,7 48 0,0
09.12.2019 05:00:00 -9,7 -10,9 8 4 12 6 WNW 977,1 12 0,0
09.12.2019 04:00:00 -9,4 -10,7 5 3 11 6 NW 976,6 3,2 0,0
09.12.2019 03:00:00 -9,9 -11,2 5 3 10 6 WNW 976,3 3,6 0,0
09.12.2019 02:00:00 -10,5 -12,0 4 2 8 4 NW 976,3 4,1 0,0
09.12.2019 01:00:00 -9,2 -10,5 3 1 5 3 W 976,1 2,4 0,0
09.12.2019 00:00:00 -8,5 -10,0 3 2 13 7 SSW 976,1 1,3 0,0
08.12.2019 23:00:00 -7,9 -10,0 8 4 18 10 ESE 976,1 7 0,0
08.12.2019 22:00:00 -7,9 -9,5 8 4 21 11 SE 976,4 11 0,0
08.12.2019 21:00:00 -7,9 -9,1 10 5 18 10 SE 976,8 19 0,0
08.12.2019 20:00:00 -7,8 -8,9 6 3 13 7 SSE 977,1 8 0,0
08.12.2019 19:00:00 -7,8 -8,7 5 3 18 10 SSE 977,5 7 0,0
08.12.2019 18:00:00 -8,0 -8,9 9 5 16 9 SSE 977,6 4,0 0,0
08.12.2019 17:00:00 -8,4 -9,5 6 4 10 5 SSE 978,2 12 0,0
08.12.2019 16:00:00 -9,8 -11,0 4 2 6 3 SE 978,9 6 0,0
08.12.2019 15:00:00 -10,7 -12,0 2 1 6 4 W 979,6 50 0,0
08.12.2019 14:00:00 -10,8 -12,1 4 2 9 5 SE 979,8 1,9 0,0
08.12.2019 13:00:00 -11,7 -13,0 8 4 12 6 WNW 980,2 50 0,0
08.12.2019 12:00:00 -13,3 -14,7 3 2 8 4 SW 980,9 50 0,0
08.12.2019 11:00:00 -11,8 -13,0 3 2 11 6 W 980,7 50 0,0
08.12.2019 10:00:00 -9,4 -11,2 7 4 16 9 NW 980,7 50 0,0
08.12.2019 09:00:00 -6,5 -8,6 3 1 12 6 NNE 980,8 50 0,0
08.12.2019 08:00:00 -5,1 -7,7 9 5 19 10 NW 980,6 50 0,0
08.12.2019 07:00:00 -4,6 -6,4 11 6 26 14 NNW 980,9 11 0,0
08.12.2019 06:00:00 -4,4 -6,1 17 9 24 13 NW 980,6 38 0,0
08.12.2019 05:00:00 -4,9 -6,4 14 8 22 12 NNW 980,8 50 0,0
08.12.2019 04:00:00 -4,8 -6,5 11 6 26 14 NNW 980,9 49 0,0
08.12.2019 03:00:00 -3,2 -4,8 13 7 27 15 NW 980,7 13 0,0

tt = temperature
td = dewpoint
ff = wind speed
fx = gusts
dd = wind direction
ppp = reduced air pressure
vv = visibility
rr = precipitation

Next stations